Time,TemperatureF,DewpointF,PressureIn,WindDirection,WindDirectionDegrees,WindSpeedMPH,WindSpeedGustMPH,Humidity,HourlyPrecipIn,Conditions,Clouds,dailyrainin,SolarRadiationWatts/m^2,SoftwareType,DateUTC
2013-01-02 00:06:00,31.8,26.3,30.10,NW,308,0.0,0.0,80,0.00,,,0.00,0,Wunderground v.1.15,2013-01-02 05:06:00,
2013-01-02 00:07:00,31.8,26.0,30.10,NW,308,0.0,0.0,79,0.00,,,0.00,0,Wunderground v.1.15,2013-01-02 05:07:00,
2013-01-02 00:08:00,31.8,26.3,30.10,NW,308,0.0,0.0,80,0.00,,,0.00,0,Wunderground v.1.15,2013-01-02 05:08:00,
2013-01-02 00:12:00,31.7,25.9,30.10,NNW,337,0.0,0.0,79,0.00,,,0.00,0,Wunderground v.1.15,2013-01-02 05:12:00,
2013-01-02 00:18:00,31.7,25.9,30.10,North,0,0.0,0.0,79,0.00,,,0.00,0,Wunderground v.1.15,2013-01-02 05:18:00,
2013-01-02 00:23:00,31.6,26.1,30.11,NW,318,0.0,0.0,80,0.00,,,0.00,0,Wunderground v.1.15,2013-01-02 05:23:00,
2013-01-02 00:28:00,31.6,25.8,30.10,NW,318,0.0,0.0,79,0.00,,,0.00,0,Wunderground v.1.15,2013-01-02 05:28:00,
2013-01-02 00:34:00,31.5,25.7,30.09,NW,324,0.0,0.0,79,0.00,,,0.00,0,Wunderground v.1.15,2013-01-02 05:34:00,
2013-01-02 00:40:00,31.5,25.7,30.09,NW,324,0.0,0.0,79,0.00,,,0.00,0,Wunderground v.1.15,2013-01-02 05:40:00,
2013-01-02 00:48:00,31.5,26.0,30.10,NW,324,0.0,0.0,80,0.00,,,0.00,0,Wunderground v.1.15,2013-01-02 05:48:00,
2013-01-02 00:54:00,31.5,25.7,30.09,NW,324,0.0,0.0,79,0.00,,,0.00,0,Wunderground v.1.15,2013-01-02 05:54:00,
2013-01-02 01:01:00,31.3,25.8,30.08,NW,324,0.0,0.0,80,0.00,,,0.00,0,Wunderground v.1.15,2013-01-02 06:01:00,
2013-01-02 01:06:00,31.2,25.7,30.09,NNW,345,0.0,0.0,80,0.00,,,0.00,0,Wunderground v.1.15,2013-01-02 06:06:00,
2013-01-02 01:11:00,31.1,25.3,30.09,North,352,0.0,0.0,79,0.00,,,0.00,0,Wunderground v.1.15,2013-01-02 06:11:00,
2013-01-02 01:17:00,31.1,25.3,30.10,North,359,0.0,0.0,79,0.00,,,0.00,0,Wunderground v.1.15,2013-01-02 06:17:00,
2013-01-02 01:22:00,31.0,25.6,30.09,North,359,0.0,0.0,80,0.00,,,0.00,0,Wunderground v.1.15,2013-01-02 06:22:00,
2013-01-02 01:29:00,31.0,25.2,30.09,North,8,0.0,0.0,79,0.00,,,0.00,0,Wunderground v.1.15,2013-01-02 06:29:00,
2013-01-02 01:34:00,30.9,25.2,30.07,North,9,0.0,0.0,79,0.00,,,0.00,0,Wunderground v.1.15,2013-01-02 06:34:00,
2013-01-02 01:40:00,30.8,25.1,30.09,North,0,0.0,0.0,79,0.00,,,0.00,0,Wunderground v.1.15,2013-01-02 06:40:00,
2013-01-02 01:45:00,30.8,25.1,30.08,North,0,0.0,0.0,79,0.00,,,0.00,0,Wunderground v.1.15,2013-01-02 06:45:00,
2013-01-02 01:51:00,30.7,25.0,30.10,North,4,0.0,0.0,79,0.00,,,0.00,0,Wunderground v.1.15,2013-01-02 06:51:00,
2013-01-02 01:56:00,30.7,25.0,30.10,North,0,0.0,0.0,79,0.00,,,0.00,0,Wunderground v.1.15,2013-01-02 06:56:00,
2013-01-02 02:01:00,30.6,24.9,30.09,NE,41,0.0,0.0,79,0.00,,,0.00,0,Wunderground v.1.15,2013-01-02 07:01:00,
2013-01-02 02:06:00,30.5,24.8,30.09,North,356,0.0,0.0,79,0.00,,,0.00,0,Wunderground v.1.15,2013-01-02 07:06:00,
2013-01-02 02:11:00,30.5,24.8,30.09,NNE,27,0.0,0.0,79,0.00,,,0.00,0,Wunderground v.1.15,2013-01-02 07:11:00,
2013-01-02 02:16:00,30.5,24.8,30.09,North,0,0.0,0.0,79,0.00,,,0.00,0,Wunderground v.1.15,2013-01-02 07:16:00,
2013-01-02 02:21:00,30.4,24.1,30.09,ENE,64,0.0,0.0,77,0.00,,,0.00,0,Wunderground v.1.15,2013-01-02 07:21:00,
2013-01-02 02:26:00,30.4,23.7,30.09,North,0,0.0,0.0,76,0.00,,,0.00,0,Wunderground v.1.15,2013-01-02 07:26:00,
2013-01-02 02:31:00,30.2,23.2,30.10,NNE,13,0.0,0.0,75,0.00,,,0.00,0,Wunderground v.1.15,2013-01-02 07:31:00,
2013-01-02 02:36:00,30.1,22.5,30.11,ENE,66,0.0,0.0,73,0.00,,,0.00,0,Wunderground v.1.15,2013-01-02 07:36:00,
2013-01-02 02:41:00,30.1,21.8,30.10,ENE,63,0.0,0.0,71,0.00,,,0.00,0,Wunderground v.1.15,2013-01-02 07:41:00,
2013-01-02 02:46:00,30.1,21.5,30.11,North,351,0.0,0.0,70,0.00,,,0.00,0,Wunderground v.1.15,2013-01-02 07:46:00,
2013-01-02 02:51:00,30.0,21.1,30.10,ENE,58,0.0,0.0,69,0.00,,,0.00,0,Wunderground v.1.15,2013-01-02 07:51:00,
2013-01-02 02:57:00,29.8,20.9,30.10,ENE,73,0.0,0.0,69,0.00,,,0.00,0,Wunderground v.1.15,2013-01-02 07:57:00,
2013-01-02 03:03:00,29.8,20.9,30.11,North,0,0.0,0.0,69,0.00,,,0.00,0,Wunderground v.1.15,2013-01-02 08:03:00,
2013-01-02 03:08:00,29.7,20.8,30.11,ENE,67,0.0,0.0,69,0.00,,,0.00,0,Wunderground v.1.15,2013-01-02 08:08:00,
2013-01-02 03:13:00,29.7,20.8,30.10,North,359,0.0,0.0,69,0.00,,,0.00,0,Wunderground v.1.15,2013-01-02 08:13:00,
2013-01-02 03:18:00,29.6,20.3,30.10,North,353,0.0,0.0,68,0.00,,,0.00,0,Wunderground v.1.15,2013-01-02 08:18:00,
2013-01-02 03:24:00,29.5,20.2,30.10,ENE,64,0.0,0.0,68,0.00,,,0.00,0,Wunderground v.1.15,2013-01-02 08:24:00,
2013-01-02 03:29:00,29.5,20.6,30.10,NE,39,0.0,0.0,69,0.00,,,0.00,0,Wunderground v.1.15,2013-01-02 08:29:00,
2013-01-02 03:34:00,29.5,20.6,30.11,North,0,0.0,0.0,69,0.00,,,0.00,0,Wunderground v.1.15,2013-01-02 08:34:00,
2013-01-02 03:39:00,29.5,20.2,30.11,North,355,0.0,0.0,68,0.00,,,0.00,0,Wunderground v.1.15,2013-01-02 08:39:00,
2013-01-02 03:44:00,29.4,20.5,30.11,North,5,0.0,0.0,69,0.00,,,0.00,0,Wunderground v.1.15,2013-01-02 08:44:00,
2013-01-02 03:49:00,29.4,20.1,30.10,NNE,28,0.0,0.0,68,0.00,,,0.00,0,Wunderground v.1.15,2013-01-02 08:49:00,
2013-01-02 03:54:00,29.3,19.7,30.11,ENE,59,0.0,0.0,67,0.00,,,0.00,0,Wunderground v.1.15,2013-01-02 08:54:00,
2013-01-02 03:59:00,29.2,19.9,30.11,NNE,13,0.0,0.0,68,0.00,,,0.00,0,Wunderground v.1.15,2013-01-02 08:59:00,
2013-01-02 04:04:00,29.2,19.9,30.11,NE,42,0.0,0.0,68,0.00,,,0.00,0,Wunderground v.1.15,2013-01-02 09:04:00,
2013-01-02 04:09:00,29.1,19.5,30.11,East,99,0.0,0.0,67,0.00,,,0.00,0,Wunderground v.1.15,2013-01-02 09:09:00,
2013-01-02 04:14:00,29.1,19.8,30.12,North,351,0.0,0.0,68,0.00,,,0.00,0,Wunderground v.1.15,2013-01-02 09:14:00,
2013-01-02 04:20:00,29.1,20.2,30.11,North,0,0.0,0.0,69,0.00,,,0.00,0,Wunderground v.1.15,2013-01-02 09:20:00,
2013-01-02 04:25:00,29.0,19.4,30.11,ENE,62,0.0,0.0,67,0.00,,,0.00,0,Wunderground v.1.15,2013-01-02 09:25:00,
2013-01-02 04:31:00,28.9,19.7,30.11,ENE,67,0.0,0.0,68,0.00,,,0.00,0,Wunderground v.1.15,2013-01-02 09:31:00,
2013-01-02 04:36:00,28.9,19.3,30.11,NE,56,0.0,0.0,67,0.00,,,0.00,0,Wunderground v.1.15,2013-01-02 09:36:00,
2013-01-02 04:41:00,28.9,19.7,30.12,NE,51,0.0,0.0,68,0.00,,,0.00,0,Wunderground v.1.15,2013-01-02 09:41:00,
2013-01-02 04:46:00,28.9,19.7,30.12,North,8,0.0,0.0,68,0.00,,,0.00,0,Wunderground v.1.15,2013-01-02 09:46:00,
2013-01-02 04:51:00,28.8,19.2,30.12,North,358,0.0,0.0,67,0.00,,,0.00,0,Wunderground v.1.15,2013-01-02 09:51:00,
2013-01-02 04:56:00,28.8,18.9,30.12,NE,39,0.0,0.0,66,0.00,,,0.00,0,Wunderground v.1.15,2013-01-02 09:56:00,
2013-01-02 05:01:00,28.7,19.1,30.12,NE,35,0.0,0.0,67,0.00,,,0.00,0,Wunderground v.1.15,2013-01-02 10:01:00,
2013-01-02 05:06:00,28.7,19.5,30.13,East,92,0.0,0.0,68,0.00,,,0.00,0,Wunderground v.1.15,2013-01-02 10:06:00,
2013-01-02 05:11:00,28.7,19.1,30.13,NNW,332,0.0,0.0,67,0.00,,,0.00,0,Wunderground v.1.15,2013-01-02 10:11:00,
2013-01-02 05:16:00,28.6,19.0,30.13,NE,45,0.0,0.0,67,0.00,,,0.00,0,Wunderground v.1.15,2013-01-02 10:16:00,
2013-01-02 05:21:00,28.5,19.3,30.12,ENE,70,0.0,0.0,68,0.00,,,0.00,0,Wunderground v.1.15,2013-01-02 10:21:00,
2013-01-02 05:26:00,28.4,19.2,30.13,ENE,61,0.0,0.0,68,0.00,,,0.00,0,Wunderground v.1.15,2013-01-02 10:26:00,
2013-01-02 05:31:00,28.4,19.5,30.13,North,352,0.0,0.0,69,0.00,,,0.00,0,Wunderground v.1.15,2013-01-02 10:31:00,
2013-01-02 05:36:00,28.3,19.4,30.13,North,350,0.0,0.0,69,0.00,,,0.00,0,Wunderground v.1.15,2013-01-02 10:36:00,
2013-01-02 05:41:00,28.3,19.1,30.13,North,0,0.0,0.0,68,0.00,,,0.00,0,Wunderground v.1.15,2013-01-02 10:41:00,
2013-01-02 05:46:00,28.3,19.4,30.14,ENE,66,0.0,0.0,69,0.00,,,0.00,0,Wunderground v.1.15,2013-01-02 10:46:00,
2013-01-02 05:52:00,28.2,19.0,30.14,North,9,0.0,0.0,68,0.00,,,0.00,0,Wunderground v.1.15,2013-01-02 10:52:00,
2013-01-02 05:57:00,28.1,18.9,30.14,North,9,0.0,0.0,68,0.00,,,0.00,0,Wunderground v.1.15,2013-01-02 10:57:00,
2013-01-02 06:02:00,28.0,18.8,30.14,NNE,12,0.0,0.0,68,0.00,,,0.00,0,Wunderground v.1.15,2013-01-02 11:02:00,
2013-01-02 06:07:00,27.9,18.7,30.14,NE,56,0.0,0.0,68,0.00,,,0.00,0,Wunderground v.1.15,2013-01-02 11:07:00,
2013-01-02 06:12:00,27.8,18.9,30.15,NE,56,0.0,0.0,69,0.00,,,0.00,0,Wunderground v.1.15,2013-01-02 11:12:00,
2013-01-02 06:17:00,27.7,18.8,30.15,ENE,69,0.0,0.0,69,0.00,,,0.00,0,Wunderground v.1.15,2013-01-02 11:17:00,
2013-01-02 06:22:00,27.5,18.7,30.15,North,9,0.0,0.0,69,0.00,,,0.00,0,Wunderground v.1.15,2013-01-02 11:22:00,
2013-01-02 06:27:00,27.3,18.8,30.15,North,11,0.0,0.0,70,0.00,,,0.00,0,Wunderground v.1.15,2013-01-02 11:27:00,
2013-01-02 06:33:00,27.2,18.7,30.15,NNE,13,0.0,0.0,70,0.00,,,0.00,0,Wunderground v.1.15,2013-01-02 11:33:00,
2013-01-02 06:38:00,27.1,18.6,30.14,NNE,14,0.0,0.0,70,0.00,,,0.00,0,Wunderground v.1.15,2013-01-02 11:38:00,
2013-01-02 06:43:00,27.0,18.5,30.15,NNE,14,0.0,0.0,70,0.00,,,0.00,0,Wunderground v.1.15,2013-01-02 11:43:00,
2013-01-02 06:48:00,26.8,18.7,30.15,NNE,14,0.0,0.0,71,0.00,,,0.00,0,Wunderground v.1.15,2013-01-02 11:48:00,
2013-01-02 06:53:00,26.7,18.6,30.15,NNE,14,0.0,0.0,71,0.00,,,0.00,0,Wunderground v.1.15,2013-01-02 11:53:00,
2013-01-02 06:58:00,26.7,18.6,30.15,NNE,14,0.0,0.0,71,0.00,,,0.00,0,Wunderground v.1.15,2013-01-02 11:58:00,
2013-01-02 07:04:00,26.6,18.5,30.15,NE,48,0.0,0.0,71,0.00,,,0.00,0,Wunderground v.1.15,2013-01-02 12:04:00,
2013-01-02 07:09:00,26.6,18.5,30.16,NE,48,0.0,0.0,71,0.00,,,0.00,0,Wunderground v.1.15,2013-01-02 12:09:00,
2013-01-02 13:05:00,35.0,20.0,30.19,NNE,14,0.0,0.0,54,0.00,,,0.00,0,Wunderground v.1.15,2013-01-02 18:05:00,
2013-01-02 13:10:00,34.8,19.8,30.19,NNE,14,0.0,0.0,54,0.00,,,0.00,0,Wunderground v.1.15,2013-01-02 18:10:00,
2013-01-02 13:15:00,35.0,20.4,30.19,NNE,15,0.0,0.0,55,0.00,,,0.00,0,Wunderground v.1.15,2013-01-02 18:15:00,
2013-01-02 13:20:00,35.5,21.3,30.19,NNE,17,0.0,0.0,56,0.00,,,0.00,0,Wunderground v.1.15,2013-01-02 18:20:00,
2013-01-02 13:25:00,35.8,21.2,30.18,NNE,18,0.0,0.0,55,0.00,,,0.00,0,Wunderground v.1.15,2013-01-02 18:25:00,
2013-01-02 13:31:00,35.8,20.3,30.19,NNE,20,0.0,0.0,53,0.00,,,0.00,0,Wunderground v.1.15,2013-01-02 18:31:00,
2013-01-02 13:36:00,36.0,21.4,30.19,NNE,22,0.0,0.0,55,0.00,,,0.00,0,Wunderground v.1.15,2013-01-02 18:36:00,
2013-01-02 15:43:00,35.6,18.3,30.17,ESE,102,1.0,1.0,49,0.00,,,0.00,0,Wunderground v.1.15,2013-01-02 20:43:00,
2013-01-02 15:48:00,35.7,18.4,30.17,ESE,102,0.0,3.0,49,0.00,,,0.00,0,Wunderground v.1.15,2013-01-02 20:48:00,
2013-01-02 15:53:00,35.6,18.3,30.17,ESE,102,0.0,0.0,49,0.00,,,0.00,0,Wunderground v.1.15,2013-01-02 20:53:00,
2013-01-02 15:58:00,35.3,18.5,30.17,ESE,102,0.0,2.0,50,0.00,,,0.00,0,Wunderground v.1.15,2013-01-02 20:58:00,
2013-01-02 16:03:00,35.1,18.3,30.16,ESE,102,1.0,2.0,50,0.00,,,0.00,0,Wunderground v.1.15,2013-01-02 21:03:00,
2013-01-02 16:08:00,35.1,18.3,30.17,ESE,102,0.0,2.0,50,0.00,,,0.00,0,Wunderground v.1.15,2013-01-02 21:08:00,
2013-01-02 16:13:00,35.2,17.9,30.17,ESE,102,1.0,3.0,49,0.00,,,0.00,0,Wunderground v.1.15,2013-01-02 21:13:00,
2013-01-02 16:18:00,35.2,17.4,30.17,ESE,102,1.0,3.0,48,0.00,,,0.00,0,Wunderground v.1.15,2013-01-02 21:18:00,
2013-01-02 16:23:00,35.0,17.7,30.17,ESE,102,0.0,3.0,49,0.00,,,0.00,0,Wunderground v.1.15,2013-01-02 21:23:00,
2013-01-02 16:28:00,34.9,18.6,30.17,ESE,102,0.0,3.0,51,0.00,,,0.00,0,Wunderground v.1.15,2013-01-02 21:28:00,
2013-01-02 16:33:00,34.8,18.0,30.16,ESE,102,0.0,1.0,50,0.00,,,0.00,0,Wunderground v.1.15,2013-01-02 21:33:00,
2013-01-02 16:38:00,34.6,18.3,30.16,ESE,102,1.0,1.0,51,0.00,,,0.00,0,Wunderground v.1.15,2013-01-02 21:38:00,
2013-01-02 16:43:00,34.4,17.7,30.16,ESE,102,1.0,2.0,50,0.00,,,0.00,0,Wunderground v.1.15,2013-01-02 21:43:00,
2013-01-02 16:49:00,34.2,17.9,30.17,ESE,102,0.0,2.0,51,0.00,,,0.00,0,Wunderground v.1.15,2013-01-02 21:49:00,
2013-01-02 16:54:00,33.9,17.7,30.16,ESE,102,0.0,0.0,51,0.00,,,0.00,0,Wunderground v.1.15,2013-01-02 21:54:00,
2013-01-02 16:59:00,33.7,17.5,30.17,ESE,102,0.0,0.0,51,0.00,,,0.00,0,Wunderground v.1.15,2013-01-02 21:59:00,
2013-01-02 17:04:00,33.5,18.2,30.16,ESE,102,0.0,0.0,53,0.00,,,0.00,0,Wunderground v.1.15,2013-01-02 22:04:00,
2013-01-02 17:09:00,33.3,18.4,30.16,ESE,102,0.0,0.0,54,0.00,,,0.00,0,Wunderground v.1.15,2013-01-02 22:09:00,
2013-01-02 17:14:00,33.1,19.5,30.16,ESE,102,0.0,0.0,57,0.00,,,0.00,0,Wunderground v.1.15,2013-01-02 22:14:00,
2013-01-02 17:19:00,32.8,19.6,30.16,ESE,102,0.0,0.0,58,0.00,,,0.00,0,Wunderground v.1.15,2013-01-02 22:19:00,
2013-01-02 17:24:00,32.6,19.4,30.16,ESE,102,0.0,0.0,58,0.00,,,0.00,0,Wunderground v.1.15,2013-01-02 22:24:00,
2013-01-02 17:29:00,32.5,20.1,30.16,ESE,102,0.0,0.0,60,0.00,,,0.00,0,Wunderground v.1.15,2013-01-02 22:29:00,
2013-01-02 17:35:00,32.2,20.2,30.17,ESE,102,0.0,0.0,61,0.00,,,0.00,0,Wunderground v.1.15,2013-01-02 22:35:00,
2013-01-02 17:40:00,32.0,20.1,30.16,ESE,102,0.0,0.0,61,0.00,,,0.00,0,Wunderground v.1.15,2013-01-02 22:40:00,
2013-01-02 17:45:00,31.9,19.6,30.16,ESE,102,0.0,0.0,60,0.00,,,0.00,0,Wunderground v.1.15,2013-01-02 22:45:00,
2013-01-02 17:51:00,31.7,19.8,30.17,ESE,102,0.0,0.0,61,0.00,,,0.00,0,Wunderground v.1.15,2013-01-02 22:51:00,
2013-01-02 17:56:00,31.6,19.7,30.17,ESE,102,0.0,0.0,61,0.00,,,0.00,0,Wunderground v.1.15,2013-01-02 22:56:00,
2013-01-02 18:02:00,31.6,20.8,30.17,ESE,102,0.0,0.0,64,0.00,,,0.00,0,Wunderground v.1.15,2013-01-02 23:02:00,
2013-01-02 18:07:00,31.5,21.1,30.17,ESE,102,0.0,0.0,65,0.00,,,0.00,0,Wunderground v.1.15,2013-01-02 23:07:00,
2013-01-02 18:12:00,31.4,21.3,30.17,ESE,102,0.0,0.0,66,0.00,,,0.00,0,Wunderground v.1.15,2013-01-02 23:12:00,
2013-01-02 18:17:00,31.4,21.0,30.17,ESE,102,0.0,0.0,65,0.00,,,0.00,0,Wunderground v.1.15,2013-01-02 23:17:00,
2013-01-02 18:22:00,31.3,20.9,30.17,ESE,102,0.0,0.0,65,0.00,,,0.00,0,Wunderground v.1.15,2013-01-02 23:22:00,
2013-01-02 18:27:00,31.3,21.3,30.18,ESE,102,0.0,0.0,66,0.00,,,0.00,0,Wunderground v.1.15,2013-01-02 23:27:00,
2013-01-02 18:32:00,31.3,21.6,30.18,ESE,102,0.0,0.0,67,0.00,,,0.00,0,Wunderground v.1.15,2013-01-02 23:32:00,
2013-01-02 18:40:00,31.1,21.4,30.18,ESE,102,0.0,0.0,67,0.00,,,0.00,0,Wunderground v.1.15,2013-01-02 23:40:00,
2013-01-02 18:45:00,31.1,21.4,30.17,ESE,102,0.0,0.0,67,0.00,,,0.00,0,Wunderground v.1.15,2013-01-02 23:45:00,
2013-01-02 18:50:00,31.1,22.1,30.18,ESE,102,0.0,0.0,69,0.00,,,0.00,0,Wunderground v.1.15,2013-01-02 23:50:00,
2013-01-02 18:55:00,31.0,22.4,30.18,ESE,102,0.0,0.0,70,0.00,,,0.00,0,Wunderground v.1.15,2013-01-02 23:55:00,
2013-01-02 19:00:00,30.9,22.3,30.19,ESE,102,0.0,0.0,70,0.00,,,0.00,0,Wunderground v.1.15,2013-01-03 00:00:00,
2013-01-02 19:49:00,29.5,21.3,30.20,ESE,102,0.0,0.0,71,0.00,,,0.00,0,Wunderground v.1.15,2013-01-03 00:49:00,
2013-01-02 19:54:00,29.5,21.6,30.20,ESE,102,0.0,0.0,72,0.00,,,0.00,0,Wunderground v.1.15,2013-01-03 00:54:00,
2013-01-02 19:59:00,29.4,22.1,30.20,ESE,102,0.0,0.0,74,0.00,,,0.00,0,Wunderground v.1.15,2013-01-03 00:59:00,
2013-01-02 20:04:00,29.1,21.8,30.20,ESE,102,0.0,0.0,74,0.00,,,0.00,0,Wunderground v.1.15,2013-01-03 01:04:00,
2013-01-02 20:09:00,28.9,22.0,30.21,ESE,102,0.0,0.0,75,0.00,,,0.00,0,Wunderground v.1.15,2013-01-03 01:09:00,
2013-01-02 20:14:00,28.8,22.2,30.21,ESE,102,0.0,0.0,76,0.00,,,0.00,0,Wunderground v.1.15,2013-01-03 01:14:00,
2013-01-02 20:19:00,28.7,22.1,30.21,ESE,102,0.0,0.0,76,0.00,,,0.00,0,Wunderground v.1.15,2013-01-03 01:19:00,
2013-01-02 20:24:00,28.5,21.9,30.21,ESE,102,0.0,0.0,76,0.00,,,0.00,0,Wunderground v.1.15,2013-01-03 01:24:00,
2013-01-02 20:29:00,28.5,21.9,30.21,ESE,102,0.0,0.0,76,0.00,,,0.00,0,Wunderground v.1.15,2013-01-03 01:29:00,
2013-01-02 20:34:00,28.4,21.8,30.21,ESE,102,0.0,0.0,76,0.00,,,0.00,0,Wunderground v.1.15,2013-01-03 01:34:00,
2013-01-02 20:39:00,28.4,22.1,30.20,ESE,102,0.0,0.0,77,0.00,,,0.00,0,Wunderground v.1.15,2013-01-03 01:39:00,
2013-01-02 20:44:00,28.3,22.3,30.20,ESE,102,0.0,0.0,78,0.00,,,0.00,0,Wunderground v.1.15,2013-01-03 01:44:00,
2013-01-02 20:49:00,28.1,22.1,30.20,ESE,102,0.0,0.0,78,0.00,,,0.00,0,Wunderground v.1.15,2013-01-03 01:49:00,
2013-01-02 20:54:00,28.0,21.7,30.21,ESE,102,0.0,0.0,77,0.00,,,0.00,0,Wunderground v.1.15,2013-01-03 01:54:00,
2013-01-02 20:59:00,27.9,22.2,30.21,ESE,102,0.0,0.0,79,0.00,,,0.00,0,Wunderground v.1.15,2013-01-03 01:59:00,
2013-01-02 21:04:00,27.9,21.9,30.20,ESE,102,0.0,0.0,78,0.00,,,0.00,0,Wunderground v.1.15,2013-01-03 02:04:00,
2013-01-02 21:09:00,27.8,22.1,30.20,ESE,102,0.0,0.0,79,0.00,,,0.00,0,Wunderground v.1.15,2013-01-03 02:09:00,
2013-01-02 21:14:00,27.8,21.8,30.20,ESE,102,0.0,0.0,78,0.00,,,0.00,0,Wunderground v.1.15,2013-01-03 02:14:00,
2013-01-02 21:19:00,27.7,22.0,30.20,ESE,102,0.0,0.0,79,0.00,,,0.00,0,Wunderground v.1.15,2013-01-03 02:19:00,
2013-01-02 21:24:00,27.7,21.7,30.21,ESE,102,0.0,0.0,78,0.00,,,0.00,0,Wunderground v.1.15,2013-01-03 02:24:00,
2013-01-02 21:29:00,27.8,21.8,30.21,ESE,102,0.0,0.0,78,0.00,,,0.00,0,Wunderground v.1.15,2013-01-03 02:29:00,
2013-01-02 21:34:00,27.9,21.6,30.21,ESE,102,0.0,0.0,77,0.00,,,0.00,0,Wunderground v.1.15,2013-01-03 02:34:00,
2013-01-02 21:39:00,27.9,22.2,30.21,ESE,102,0.0,0.0,79,0.00,,,0.00,0,Wunderground v.1.15,2013-01-03 02:39:00,
2013-01-02 21:44:00,27.9,22.2,30.21,ESE,102,0.0,0.0,79,0.00,,,0.00,0,Wunderground v.1.15,2013-01-03 02:44:00,
2013-01-02 21:49:00,27.8,22.1,30.21,ESE,102,0.0,0.0,79,0.00,,,0.00,0,Wunderground v.1.15,2013-01-03 02:49:00,
2013-01-02 21:54:00,27.8,22.1,30.21,ESE,102,0.0,0.0,79,0.00,,,0.00,0,Wunderground v.1.15,2013-01-03 02:54:00,
2013-01-02 21:59:00,27.8,22.4,30.21,ESE,102,0.0,0.0,80,0.00,,,0.00,0,Wunderground v.1.15,2013-01-03 02:59:00,
2013-01-02 22:04:00,27.8,22.4,30.22,ESE,102,0.0,0.0,80,0.00,,,0.00,0,Wunderground v.1.15,2013-01-03 03:04:00,
2013-01-02 22:09:00,27.8,22.7,30.21,ESE,102,0.0,0.0,81,0.00,,,0.00,0,Wunderground v.1.15,2013-01-03 03:09:00,
2013-01-02 22:14:00,27.7,22.3,30.22,ESE,102,0.0,0.0,80,0.00,,,0.00,0,Wunderground v.1.15,2013-01-03 03:14:00,
2013-01-02 22:20:00,27.6,22.2,30.22,ESE,102,0.0,0.0,80,0.00,,,0.00,0,Wunderground v.1.15,2013-01-03 03:20:00,
2013-01-02 22:25:00,27.4,22.0,30.22,ESE,102,0.0,0.0,80,0.00,,,0.00,0,Wunderground v.1.15,2013-01-03 03:25:00,
2013-01-02 22:32:00,27.3,21.9,30.22,ESE,102,0.0,0.0,80,0.00,,,0.00,0,Wunderground v.1.15,2013-01-03 03:32:00,
2013-01-02 22:38:00,27.2,22.1,30.22,ESE,102,0.0,0.0,81,0.00,,,0.00,0,Wunderground v.1.15,2013-01-03 03:38:00,
2013-01-02 22:43:00,27.1,22.3,30.22,ESE,102,0.0,0.0,82,0.00,,,0.00,0,Wunderground v.1.15,2013-01-03 03:43:00,
2013-01-02 22:49:00,26.9,22.1,30.22,ESE,102,0.0,0.0,82,0.00,,,0.00,0,Wunderground v.1.15,2013-01-03 03:49:00,
2013-01-02 22:54:00,26.8,22.0,30.21,ESE,102,0.0,0.0,82,0.00,,,0.00,0,Wunderground v.1.15,2013-01-03 03:54:00,
2013-01-02 22:59:00,26.7,21.9,30.22,ESE,102,0.0,0.0,82,0.00,,,0.00,0,Wunderground v.1.15,2013-01-03 03:59:00,
2013-01-02 23:04:00,26.6,21.8,30.22,ESE,102,0.0,0.0,82,0.00,,,0.00,0,Wunderground v.1.15,2013-01-03 04:04:00,
2013-01-02 23:09:00,26.5,21.7,30.22,ESE,102,0.0,0.0,82,0.00,,,0.00,0,Wunderground v.1.15,2013-01-03 04:09:00,
2013-01-02 23:14:00,26.5,22.0,30.22,ESE,102,0.0,0.0,83,0.00,,,0.00,0,Wunderground v.1.15,2013-01-03 04:14:00,
2013-01-02 23:19:00,26.5,22.0,30.21,ESE,102,0.0,0.0,83,0.00,,,0.00,0,Wunderground v.1.15,2013-01-03 04:19:00,
2013-01-02 23:24:00,26.5,22.0,30.21,ESE,102,0.0,0.0,83,0.00,,,0.00,0,Wunderground v.1.15,2013-01-03 04:24:00,
2013-01-02 23:29:00,26.6,22.1,30.21,ESE,102,0.0,0.0,83,0.00,,,0.00,0,Wunderground v.1.15,2013-01-03 04:29:00,
2013-01-02 23:34:00,26.6,22.1,30.21,ESE,102,0.0,0.0,83,0.00,,,0.00,0,Wunderground v.1.15,2013-01-03 04:34:00,
2013-01-02 23:39:00,26.7,22.2,30.21,ESE,102,0.0,0.0,83,0.00,,,0.00,0,Wunderground v.1.15,2013-01-03 04:39:00,
2013-01-02 23:44:00,26.8,22.6,30.21,ESE,102,0.0,0.0,84,0.00,,,0.00,0,Wunderground v.1.15,2013-01-03 04:44:00,
2013-01-02 23:49:00,26.8,22.3,30.20,ESE,102,0.0,0.0,83,0.00,,,0.00,0,Wunderground v.1.15,2013-01-03 04:49:00,
2013-01-02 23:54:00,26.8,22.3,30.20,ESE,102,0.0,0.0,83,0.00,,,0.00,0,Wunderground v.1.15,2013-01-03 04:54:00,
2013-01-02 23:59:00,26.8,22.6,30.20,ESE,102,0.0,0.0,84,0.00,,,0.00,0,Wunderground v.1.15,2013-01-03 04:59:00,